When you browse on this site, cookies collect data to enhance your experience and personalize the content and advertising you see.
Visit our Privacy Policy to learn more. By continuing to use the site, you agree to this use of cookies and data.
  • En España
  • Lista de países
  • Para 7 días
  • Temperatura del agua
  • El tiempo en el mapa
  • Informadores
  • user-avatar
    Iniciar sesión

    Tiempo cada hora Kinshasa

    Hoy, 26 Febrero, Miércoles

    Tiempo Temperatura Precipitaciones Viento Presión Humedad
    00:00 +23°C° 0 mm 1 mps 706 mmHg 31%
    01:00 +22°C° 0 mm 1 mps 706 mmHg 35%
    02:00 +22°C° 0 mm 1 mps 705 mmHg 35%
    03:00 +21°C° 0 mm 1 mps 705 mmHg 34%
    04:00 +20°C° 0 mm 1 mps 705 mmHg 34%
    05:00 +21°C° 0 mm 1 mps 705 mmHg 34%
    06:00 +21°C° 0 mm 1 mps 706 mmHg 34%
    07:00 +24°C° 0 mm 1 mps 706 mmHg 29%
    08:00 +28°C° 0 mm 1 mps 707 mmHg 25%
    09:00 +32°C° 0 mm 1 mps 708 mmHg 21%
    10:00 +36°C° 0 mm 2 mps 708 mmHg 17%
    11:00 +38°C° 0 mm 2 mps 707 mmHg 15%
    12:00 +40°C° 0 mm 2 mps 707 mmHg 14%
    13:00 +40°C° 0 mm 2 mps 706 mmHg 15%
    14:00 +41°C° 0 mm 2 mps 706 mmHg 15%
    15:00 +41°C° 0 mm 2 mps 705 mmHg 16%
    16:00 +41°C° 0 mm 1 mps 704 mmHg 16%
    17:00 +37°C° 0 mm 1 mps 704 mmHg 20%
    18:00 +33°C° 0 mm 1 mps 704 mmHg 24%
    19:00 +28°C° 0 mm 0 mps 704 mmHg 29%
    20:00 +27°C° 0 mm 0 mps 705 mmHg 31%
    21:00 +26°C° 0 mm 0 mps 705 mmHg 34%
    22:00 +25°C° 0 mm 0 mps 706 mmHg 36%
    23:00 +26°C° 0 mm 1 mps 706 mmHg 45%

    Mañana, 27 Febrero, Jueves

    Tiempo Temperatura Precipitaciones Viento Presión Humedad
    00:00 +25°C° 0 mm 1 mps 706 mmHg 54%
    01:00 +25°C° 0 mm 1 mps 706 mmHg 63%
    02:00 +24°C° 0.2 mm 1 mps 706 mmHg 68%
    03:00 +24°C° 0.2 mm 1 mps 706 mmHg 74%
    04:00 +24°C° 0.2 mm 1 mps 706 mmHg 79%
    05:00 +24°C° 0.7 mm 1 mps 706 mmHg 82%
    06:00 +22°C° 0.7 mm 0 mps 707 mmHg 84%
    07:00 +22°C° 0.7 mm 0 mps 707 mmHg 87%
    08:00 +27°C° 0.1 mm 1 mps 708 mmHg 73%
    09:00 +31°C° 0.1 mm 1 mps 708 mmHg 60%
    10:00 +35°C° 0.1 mm 2 mps 709 mmHg 47%
    11:00 +37°C° 0 mm 2 mps 708 mmHg 40%
    12:00 +39°C° 0 mm 2 mps 707 mmHg 32%
    13:00 +41°C° 0 mm 1 mps 706 mmHg 25%
    14:00 +41°C° 0 mm 2 mps 705 mmHg 24%
    15:00 +41°C° 0 mm 2 mps 705 mmHg 24%
    16:00 +41°C° 0 mm 2 mps 704 mmHg 23%
    17:00 +38°C° 0 mm 2 mps 704 mmHg 27%
    18:00 +34°C° 0 mm 1 mps 704 mmHg 31%
    19:00 +32°C° 0 mm 1 mps 704 mmHg 34%
    20:00 +31°C° 0 mm 1 mps 704 mmHg 37%
    21:00 +28°C° 0 mm 0 mps 705 mmHg 39%
    22:00 +27°C° 0 mm 0 mps 705 mmHg 41%
    23:00 +26°C° 0 mm 0 mps 705 mmHg 45%

    Pasado mañana, 28 Febrero, Viernes

    Tiempo Temperatura Precipitaciones Viento Presión Humedad
    00:00 +25°C° 0 mm 0 mps 705 mmHg 48%
    01:00 +23°C° 0 mm 0 mps 705 mmHg 52%
    02:00 +23°C° 0 mm 0 mps 705 mmHg 54%
    03:00 +24°C° 0 mm 1 mps 705 mmHg 56%
    04:00 +24°C° 0 mm 1 mps 705 mmHg 58%
    05:00 +24°C° 0 mm 1 mps 706 mmHg 62%
    06:00 +24°C° 0 mm 1 mps 706 mmHg 65%
    07:00 +25°C° 0 mm 2 mps 707 mmHg 69%
    08:00 +28°C° 0 mm 2 mps 707 mmHg 58%
    09:00 +32°C° 0 mm 2 mps 708 mmHg 47%
    10:00 +37°C° 0 mm 2 mps 708 mmHg 36%
    11:00 +39°C° 0 mm 2 mps 707 mmHg 29%
    12:00 +40°C° 0 mm 3 mps 706 mmHg 22%
    13:00 +43°C° 0 mm 3 mps 705 mmHg 15%
    14:00 +43°C° 0 mm 3 mps 705 mmHg 15%
    15:00 +42°C° 0 mm 3 mps 704 mmHg 14%
    16:00 +42°C° 0 mm 3 mps 703 mmHg 13%
    17:00 +38°C° 0 mm 2 mps 703 mmHg 16%
    18:00 +34°C° 0 mm 1 mps 703 mmHg 19%
    19:00 +28°C° 0 mm 0 mps 703 mmHg 22%
    20:00 +27°C° 0 mm 0 mps 704 mmHg 24%
    21:00 +28°C° 0 mm 1 mps 705 mmHg 25%
    22:00 +27°C° 0 mm 1 mps 705 mmHg 26%
    23:00 +26°C° 0 mm 1 mps 705 mmHg 33%

    29 Febrero, Sábado

    Tiempo Temperatura Precipitaciones Viento Presión Humedad
    00:00 +25°C° 0 mm 1 mps 705 mmHg 40%
    01:00 +24°C° 0 mm 2 mps 705 mmHg 48%
    02:00 +23°C° 0 mm 2 mps 705 mmHg 57%
    03:00 +23°C° 0 mm 2 mps 705 mmHg 66%
    04:00 +23°C° 0 mm 2 mps 705 mmHg 74%
    05:00 +23°C° 0 mm 2 mps 705 mmHg 77%
    06:00 +23°C° 0 mm 2 mps 706 mmHg 80%
    07:00 +23°C° 0 mm 2 mps 706 mmHg 83%
    08:00 +27°C° 0 mm 2 mps 707 mmHg 70%
    09:00 +30°C° 0 mm 2 mps 707 mmHg 57%
    10:00 +34°C° 0 mm 2 mps 708 mmHg 43%
    11:00 +36°C° 0 mm 2 mps 707 mmHg 34%
    12:00 +39°C° 0 mm 2 mps 706 mmHg 25%
    13:00 +41°C° 0 mm 2 mps 706 mmHg 16%
    14:00 +41°C° 0 mm 2 mps 705 mmHg 15%
    15:00 +41°C° 0 mm 2 mps 704 mmHg 14%
    16:00 +41°C° 0 mm 2 mps 703 mmHg 14%
    17:00 +37°C° 0 mm 1 mps 704 mmHg 16%
    18:00 +34°C° 0 mm 1 mps 704 mmHg 19%
    19:00 +29°C° 0 mm 0 mps 704 mmHg 21%
    20:00 +28°C° 0 mm 0 mps 704 mmHg 22%
    21:00 +28°C° 0 mm 0 mps 705 mmHg 23%
    22:00 +27°C° 0 mm 0 mps 705 mmHg 25%
    23:00 +28°C° 0 mm 1 mps 705 mmHg 34%

    1 Marzo, Domingo

    Tiempo Temperatura Precipitaciones Viento Presión Humedad
    00:00 +27°C° 0 mm 1 mps 705 mmHg 43%
    01:00 +27°C° 0 mm 2 mps 705 mmHg 53%
    02:00 +26°C° 0 mm 2 mps 706 mmHg 61%
    03:00 +25°C° 0 mm 2 mps 706 mmHg 70%
    04:00 +25°C° 0 mm 2 mps 706 mmHg 79%
    05:00 +25°C° 0 mm 2 mps 706 mmHg 79%
    06:00 +25°C° 0 mm 2 mps 707 mmHg 79%
    07:00 +25°C° 0 mm 2 mps 707 mmHg 80%
    08:00 +28°C° 0 mm 2 mps 708 mmHg 70%
    09:00 +30°C° 0 mm 3 mps 708 mmHg 60%
    10:00 +33°C° 0 mm 3 mps 709 mmHg 50%
    11:00 +36°C° 0 mm 3 mps 708 mmHg 42%
    12:00 +38°C° 0 mm 2 mps 707 mmHg 34%
    13:00 +40°C° 0 mm 2 mps 706 mmHg 26%
    14:00 +40°C° 0 mm 1 mps 706 mmHg 24%
    15:00 +40°C° 0 mm 1 mps 705 mmHg 23%
    16:00 +37°C° 0 mm 0 mps 704 mmHg 21%
    17:00 +35°C° 0 mm 0 mps 705 mmHg 26%
    18:00 +34°C° 0 mm 1 mps 705 mmHg 30%
    19:00 +32°C° 0 mm 1 mps 705 mmHg 35%
    20:00 +31°C° 0 mm 1 mps 705 mmHg 40%
    21:00 +30°C° 0 mm 1 mps 705 mmHg 46%
    22:00 +28°C° 0 mm 1 mps 706 mmHg 52%
    23:00 +28°C° 0 mm 1 mps 706 mmHg 56%

    2 Marzo, Lunes

    Tiempo Temperatura Precipitaciones Viento Presión Humedad
    00:00 +27°C° 0 mm 1 mps 706 mmHg 61%
    01:00 +26°C° 0 mm 1 mps 706 mmHg 65%
    02:00 +25°C° 0.9 mm 1 mps 706 mmHg 73%
    03:00 +24°C° 0.9 mm 1 mps 706 mmHg 81%
    04:00 +21°C° 0.9 mm 0 mps 706 mmHg 89%
    05:00 +23°C° 0.1 mm 1 mps 707 mmHg 88%
    06:00 +23°C° 0.1 mm 1 mps 707 mmHg 87%
    07:00 +24°C° 0.1 mm 1 mps 708 mmHg 86%
    08:00 +27°C° 0 mm 1 mps 708 mmHg 74%
    09:00 +30°C° 0 mm 2 mps 708 mmHg 61%
    10:00 +34°C° 0 mm 2 mps 709 mmHg 49%
    11:00 +37°C° 0 mm 2 mps 708 mmHg 41%
    12:00 +39°C° 0 mm 1 mps 708 mmHg 33%
    13:00 +42°C° 0 mm 1 mps 707 mmHg 25%
    14:00 +41°C° 0 mm 1 mps 706 mmHg 27%
    15:00 +39°C° 0 mm 1 mps 705 mmHg 29%
    16:00 +38°C° 0 mm 2 mps 705 mmHg 31%
    17:00 +35°C° 0 mm 2 mps 705 mmHg 38%
    18:00 +32°C° 0 mm 1 mps 705 mmHg 44%
    19:00 +30°C° 0 mm 1 mps 705 mmHg 51%
    20:00 +29°C° 0.2 mm 1 mps 706 mmHg 57%
    21:00 +28°C° 0.2 mm 1 mps 706 mmHg 62%
    22:00 +27°C° 0.2 mm 2 mps 707 mmHg 68%
    23:00 +26°C° 0 mm 1 mps 707 mmHg 72%
    Mostrar más